GW3605 Weather Reports


Display with metric or nautical units.
time (UTC)temp
F
wind
direction
speed
MPH
gust
MPH
rain 1hr
in
rain 24hr
in
rain mn
in
humidity
%
barometer
mb
20260906152522 75 153 2.0 3.0 0.00 0.00 0.00 78 1021.1
20260906152021 75 101 1.0 3.0 0.00 0.00 0.00 77 1021.2
20260906151517 76 62 2.0 3.0 0.00 0.00 0.00 74 1021.1
20260906151013 75 49 0.0 2.0 0.00 0.00 0.00 77 1021.0
20260906150508 76 146 5.0 7.0 0.00 0.00 0.00 76 1020.9
20260906150008 77 105 0.0 2.0 0.00 0.00 0.00 77 1021.0
20260906145502 74 125 0.0 3.0 0.00 0.00 0.00 81 1020.9
20260906145001 74 119 3.0 4.0 0.00 0.00 0.00 78 1020.8
20260906144456 73 146 3.0 7.0 0.00 0.00 0.00 81 1020.7
20260906143951 74 141 1.0 6.0 0.00 0.00 0.00 78 1021.0
20260906143447 74 139 0.0 3.0 0.00 0.00 0.00 80 1020.9
20260906142943 73 93 2.0 3.0 0.00 0.00 0.00 80 1020.8
20260906142437 74 142 1.0 2.0 0.00 0.00 0.00 80 1020.9
20260906141932 73 181 1.0 1.0 0.00 0.00 0.00 81 1021.0
20260906141432 73 38 2.0 3.0 0.00 0.00 0.00 81 1021.1
20260906140932 73 135 1.0 2.0 0.00 0.00 0.00 81 1021.2
20260906140426 73 106 2.0 2.0 0.00 0.00 0.00 81 1020.9
20260906135924 73 157 2.0 2.0 0.00 0.00 0.00 83 1021.0
20260906135424 73 167 0.0 1.0 0.00 0.00 0.00 84 1021.1
20260906134919 72 182 1.0 2.0 0.00 0.00 0.00 83 1021.2
20260906134414 72 145 1.0 1.0 0.00 0.00 0.00 84 1021.0
20260906133904 71 145 0.0 0.0 0.00 0.00 0.00 85 1021.0
20260906133400 71 155 0.0 1.0 0.00 0.00 0.00 87 1021.0
20260906132855 70 129 2.0 2.0 0.00 0.00 0.00 87 1020.7
20260906132350 70 125 1.0 3.0 0.00 0.00 0.00 88 1020.8
20260906131846 70 128 0.0 1.0 0.00 0.00 0.00 89 1020.8
20260906131341 69 139 1.0 3.0 0.00 0.00 0.00 90 1020.7
20260906130837 68 102 0.0 2.0 0.00 0.00 0.00 91 1020.8
20260906130337 68 130 0.0 2.0 0.00 0.00 0.00 93 1020.8
20260906125835 67 133 1.0 1.0 0.00 0.00 0.00 97 1020.7
20260906125333 66 137 1.0 1.0 0.00 0.00 0.00 99 1020.8
20260906124828 65 140 0.0 0.0 0.00 0.00 0.00 99 1020.8
20260906124324 64 139 0.0 1.0 0.00 0.00 0.00 99 1020.6
20260906123823 64 149 1.0 1.0 0.00 0.00 0.00 99 1020.5
20260906123318 63 144 1.0 1.0 0.00 0.00 0.00 99 1020.4
20260906122817 63 167 0.0 2.0 0.00 0.00 0.00 99 1020.5
20260906122313 63 249 0.0 0.0 0.00 0.00 0.00 99 1020.5
20260906121809 62 249 0.0 1.0 0.00 0.00 0.00 99 1020.3
20260906121259 62 249 0.0 0.0 0.00 0.00 0.00 99 1020.5
20260906120755 61 249 0.0 0.0 0.00 0.00 0.00 99 1020.4
20260906120252 61 249 0.0 0.0 0.00 0.00 0.00 99 1020.2
20260906115747 61 249 0.0 0.0 0.00 0.00 0.00 99 1020.2
20260906115242 60 249 0.0 0.0 0.00 0.00 0.00 99 1020.2
20260906114741 60 249 0.0 0.0 0.00 0.00 0.00 99 1020.1
20260906114236 60 249 0.0 0.0 0.00 0.00 0.00 99 1020.0
20260906113731 59 249 0.0 0.0 0.00 0.00 0.00 99 1019.9
20260906113230 59 249 0.0 0.0 0.00 0.00 0.00 99 1019.8
20260906112725 59 249 0.0 0.0 0.00 0.00 0.00 99 1019.6
20260906112222 59 249 0.0 0.0 0.00 0.00 0.00 99 1019.7
20260906111721 59 249 0.0 0.0 0.00 0.00 0.00 99 1019.4
20260906111215 59 249 0.0 0.0 0.00 0.00 0.00 99 1019.4
20260906110711 59 249 0.0 0.0 0.00 0.00 0.00 99 1019.5
20260906110206 59 249 0.0 0.0 0.00 0.00 0.00 99 1019.5
20260906105700 59 249 0.0 0.0 0.00 0.00 0.00 99 1019.4
20260906105156 59 249 0.0 0.0 0.00 0.00 0.00 99 1019.6
20260906104655 59 249 0.0 0.0 0.00 0.00 0.00 99 1019.6
20260906104149 59 249 0.0 0.0 0.00 0.00 0.00 99 1019.6
20260906103647 59 249 0.0 0.0 0.00 0.00 0.00 99 1019.4
20260906103142 60 249 0.0 0.0 0.00 0.00 0.00 99 1019.2
20260906102638 60 249 0.0 0.0 0.00 0.00 0.00 99 1019.3
20260906102137 60 249 0.0 0.0 0.00 0.00 0.00 99 1019.6
20260906101637 60 249 0.0 0.0 0.00 0.00 0.00 99 1019.8
20260906101136 60 249 0.0 0.0 0.00 0.00 0.00 99 1019.6
20260906100632 60 249 0.0 0.0 0.00 0.00 0.00 99 1019.5
20260906100127 60 249 0.0 1.0 0.00 0.00 0.00 99 1019.5
20260906095622 60 249 0.0 0.0 0.00 0.00 0.00 99 1019.5
20260906095118 60 249 0.0 0.0 0.00 0.00 0.00 99 1019.6
20260906094616 60 249 0.0 0.0 0.00 0.00 0.00 99 1019.5
20260906094113 60 249 0.0 1.0 0.00 0.00 0.00 99 1019.4
20260906093608 60 249 0.0 1.0 0.00 0.00 0.00 99 1019.3
20260906093102 60 249 0.0 0.0 0.00 0.00 0.00 99 1019.2
20260906092557 60 249 0.0 0.0 0.00 0.00 0.00 99 1019.0
20260906092053 60 249 0.0 0.0 0.00 0.00 0.00 99 1019.3
20260906091548 60 249 0.0 0.0 0.00 0.00 0.00 99 1019.4
20260906091045 60 332 2.0 3.0 0.00 0.00 0.00 99 1019.1
20260906090545 60 124 0.0 0.0 0.00 0.00 0.00 99 1019.2
20260906090040 60 124 0.0 0.0 0.00 0.00 0.00 99 1019.3
20260906085539 60 124 0.0 0.0 0.00 0.00 0.00 99 1019.2
20260906085039 60 124 0.0 0.0 0.00 0.00 0.00 99 1019.3
20260906084533 60 124 0.0 0.0 0.00 0.00 0.00 99 1019.2
20260906084032 60 123 0.0 0.0 0.00 0.00 0.00 99 1019.2
20260906083528 60 123 0.0 0.0 0.00 0.00 0.00 99 1019.0
20260906083028 60 124 0.0 0.0 0.00 0.00 0.00 99 1019.1
20260906082523 60 124 0.0 0.0 0.00 0.00 0.00 99 1019.0
20260906082019 60 124 0.0 0.0 0.00 0.00 0.00 99 1019.1
20260906081514 60 124 0.0 0.0 0.00 0.00 0.00 99 1018.9
20260906081010 61 124 0.0 0.0 0.00 0.00 0.00 99 1019.0
20260906080506 61 124 0.0 0.0 0.00 0.00 0.00 99 1018.8
20260906080002 61 123 0.0 0.0 0.00 0.00 0.00 98 1019.0
20260906075455 61 124 0.0 0.0 0.00 0.00 0.00 98 1019.0
20260906074950 61 124 0.0 0.0 0.00 0.00 0.00 98 1019.2
20260906074445 61 124 0.0 0.0 0.00 0.00 0.00 98 1019.3
20260906073943 62 124 0.0 0.0 0.00 0.00 0.00 98 1019.3
20260906073438 62 124 0.0 0.0 0.00 0.00 0.00 98 1019.2
20260906072935 61 124 0.0 0.0 0.00 0.00 0.00 98 1019.2
20260906072430 61 123 0.0 0.0 0.00 0.00 0.00 97 1019.1
20260906071926 61 123 0.0 0.0 0.00 0.00 0.00 97 1019.0
20260906071422 62 123 0.0 1.0 0.00 0.00 0.00 97 1019.1
20260906070917 62 123 0.0 1.0 0.00 0.00 0.00 97 1019.1
20260906070412 61 123 0.0 0.0 0.00 0.00 0.00 97 1019.3
20260906065908 62 123 0.0 0.0 0.00 0.00 0.00 97 1018.9
20260906065403 62 123 0.0 0.0 0.00 0.00 0.00 97 1018.9
20260906064858 62 123 0.0 0.0 0.00 0.00 0.00 97 1018.8
20260906064354 62 123 0.0 1.0 0.00 0.00 0.00 97 1019.0
20260906063849 61 123 0.0 0.0 0.00 0.00 0.00 97 1018.8
20260906063344 61 123 0.0 0.0 0.00 0.00 0.00 96 1018.9
20260906062839 60 123 0.0 0.0 0.00 0.00 0.00 96 1018.9
20260906062338 61 123 0.0 0.0 0.00 0.00 0.00 95 1018.9
20260906061834 61 123 0.0 0.0 0.00 0.00 0.00 95 1018.8
20260906061330 61 123 0.0 0.0 0.00 0.00 0.00 94 1018.8
20260906060824 61 123 0.0 0.0 0.00 0.00 0.00 94 1018.8
20260906060323 62 123 0.0 0.0 0.00 0.00 0.00 94 1018.8
20260906055818 62 123 0.0 0.0 0.00 0.00 0.00 94 1018.7
20260906055314 62 123 0.0 0.0 0.00 0.00 0.00 94 1018.8
20260906054809 62 123 0.0 0.0 0.00 0.00 0.00 94 1018.7
20260906054304 62 123 0.0 0.0 0.00 0.00 0.00 94 1018.8
20260906053800 61 123 0.0 0.0 0.00 0.00 0.00 95 1018.8
20260906053255 61 123 0.0 0.0 0.00 0.00 0.00 97 1018.6
20260906052751 61 123 0.0 0.0 0.00 0.00 0.00 97 1018.4
20260906052247 61 123 0.0 0.0 0.00 0.00 0.00 98 1018.3
20260906051744 61 123 0.0 0.0 0.00 0.00 0.00 98 1018.4
20260906051244 61 123 0.0 0.0 0.00 0.00 0.00 99 1018.3
20260906050739 61 123 0.0 0.0 0.00 0.00 0.00 99 1018.4
20260906050234 61 123 0.0 0.0 0.00 0.00 0.00 99 1018.3
20260906045732 61 123 0.0 0.0 0.00 0.01 0.01 99 1018.2
20260906045227 61 123 0.0 0.0 0.00 0.01 0.01 99 1018.2
20260906044723 61 123 0.0 0.0 0.00 0.01 0.01 99 1018.4
20260906044218 61 123 0.0 0.0 0.00 0.01 0.01 99 1018.5
20260906043714 61 123 0.0 0.0 0.00 0.01 0.01 99 1018.3
20260906043210 61 123 0.0 0.0 0.00 0.01 0.01 99 1018.4
20260906042709 61 123 0.0 0.0 0.00 0.01 0.01 99 1018.3
20260906042203 61 123 0.0 0.0 0.00 0.01 0.01 99 1018.2
20260906041659 61 123 0.0 0.0 0.00 0.01 0.01 99 1018.3
20260906041153 62 123 0.0 0.0 0.00 0.01 0.01 99 1018.1
20260906040648 61 123 0.0 0.0 0.00 0.01 0.01 99 1018.0
20260906040139 61 123 0.0 0.0 0.00 0.01 0.01 99 1018.1
20260906035633 61 123 0.0 0.0 0.00 0.01 0.01 99 1017.9
20260906035130 62 123 0.0 0.0 0.00 0.01 0.01 99 1018.0
20260906034629 62 123 0.0 0.0 0.00 0.01 0.01 98 1018.1
20260906034124 62 123 0.0 0.0 0.00 0.01 0.01 98 1017.9
20260906033620 62 123 0.0 0.0 0.00 0.01 0.01 98 1017.9
20260906033120 62 123 0.0 0.0 0.00 0.01 0.01 98 1018.0
20260906032617 62 123 0.0 0.0 0.00 0.01 0.01 97 1018.0
20260906032116 63 123 0.0 0.0 0.00 0.01 0.01 97 1018.0
20260906031612 63 123 0.0 0.0 0.00 0.01 0.01 97 1017.8
20260906031108 63 123 0.0 0.0 0.00 0.01 0.01 97 1017.9
20260906030606 63 123 0.0 0.0 0.00 0.01 0.01 97 1017.9
20260906030101 63 123 0.0 0.0 0.00 0.01 0.01 96 1017.8
20260906025556 64 123 0.0 0.0 0.00 0.01 0.01 97 1018.0
20260906025054 64 123 0.0 0.0 0.00 0.01 0.01 96 1017.8
20260906024549 64 123 0.0 0.0 0.00 0.01 0.01 96 1018.0
20260906024049 64 123 0.0 0.0 0.00 0.01 0.01 96 1017.9
20260906023546 64 123 0.0 0.0 0.00 0.01 0.01 96 1017.8
20260906023040 64 123 0.0 0.0 0.00 0.01 0.01 96 1017.9
20260906022536 65 123 0.0 0.0 0.00 0.01 0.01 95 1017.8
20260906022031 66 123 0.0 0.0 0.00 0.01 0.01 95 1017.5
20260906021526 66 123 0.0 0.0 0.00 0.01 0.01 94 1017.8
20260906021020 66 123 0.0 0.0 0.00 0.01 0.01 94 1017.9
20260906020520 66 123 0.0 0.0 0.00 0.01 0.01 94 1017.8
20260906020019 66 123 0.0 0.0 0.00 0.01 0.01 94 1017.8
20260906015518 66 123 0.0 0.0 0.00 0.01 0.01 93 1018.0
20260906015018 67 123 0.0 0.0 0.00 0.01 0.01 92 1017.9
20260906014513 67 123 0.0 0.0 0.00 0.01 0.01 92 1017.9
20260906014009 68 123 0.0 0.0 0.00 0.01 0.01 91 1017.5
20260906013504 68 123 0.0 0.0 0.00 0.01 0.01 90 1017.8
20260906013000 69 123 0.0 0.0 0.00 0.01 0.01 89 1017.5
20260906012455 69 123 0.0 0.0 0.00 0.01 0.01 88 1017.5
20260906011954 69 123 0.0 1.0 0.00 0.01 0.01 87 1017.7
20260906011450 70 121 0.0 2.0 0.00 0.01 0.01 87 1017.7
20260906010944 70 139 1.0 1.0 0.00 0.01 0.01 87 1017.7
20260906010440 70 139 0.0 1.0 0.00 0.01 0.01 86 1017.5
20260906005936 70 139 0.0 1.0 0.00 0.01 0.01 86 1017.7
20260906005436 70 139 0.0 0.0 0.00 0.01 0.01 85 1017.5
20260906004934 70 139 0.0 1.0 0.00 0.01 0.01 85 1017.4
20260906004428 71 139 0.0 1.0 0.00 0.01 0.01 84 1017.2
20260906003924 71 141 0.0 1.0 0.00 0.01 0.01 84 1017.3
20260906003419 71 141 0.0 1.0 0.00 0.01 0.01 83 1017.3
20260906002914 71 189 1.0 2.0 0.00 0.01 0.01 83 1017.3
20260906002409 71 164 0.0 0.0 0.00 0.01 0.01 83 1017.1
20260906001904 71 187 0.0 0.0 0.00 0.01 0.01 83 1017.1
20260906001359 72 167 0.0 1.0 0.00 0.01 0.01 82 1017.4
20260906000859 72 212 0.0 2.0 0.00 0.01 0.01 82 1017.3
20260906000356 73 260 2.0 3.0 0.00 0.01 0.01 81 1017.1
20260905235849 73 249 0.0 4.0 0.00 0.01 0.01 80 1017.2
20260905235343 74 120 1.0 3.0 0.00 0.01 0.01 80 1017.0
20260905234838 74 107 1.0 2.0 0.00 0.01 0.01 79 1017.2
20260905234334 74 191 1.0 1.0 0.00 0.01 0.01 78 1017.2
20260905233829 75 38 2.0 8.0 0.00 0.01 0.01 78 1017.2
20260905233324 75 55 2.0 3.0 0.00 0.01 0.01 77 1017.1
20260905232823 75 184 1.0 3.0 0.00 0.01 0.01 76 1017.3
20260905232319 75 89 2.0 4.0 0.00 0.01 0.01 77 1017.3
20260905231815 76 92 2.0 2.0 0.00 0.01 0.01 75 1017.5
20260905231310 76 341 2.0 4.0 0.00 0.01 0.01 76 1017.4
20260905230806 76 167 0.0 3.0 0.00 0.01 0.01 76 1017.4
20260905230304 76 96 1.0 3.0 0.00 0.01 0.01 76 1017.3
20260905225803 76 16 1.0 2.0 0.00 0.01 0.01 76 1017.3
20260905225259 76 322 3.0 3.0 0.00 0.01 0.01 76 1017.5
20260905224758 76 338 4.0 7.0 0.00 0.01 0.01 76 1017.4
20260905224254 76 340 3.0 6.0 0.00 0.01 0.01 75 1017.2
20260905223749 76 62 2.0 3.0 0.00 0.01 0.01 75 1017.0
20260905223246 76 20 3.0 8.0 0.00 0.01 0.01 75 1017.1
20260905222741 76 141 1.0 2.0 0.00 0.01 0.01 74 1017.1
20260905222240 76 151 0.0 1.0 0.00 0.01 0.01 75 1017.1
20260905221736 76 99 3.0 3.0 0.00 0.01 0.01 74 1017.0
20260905221233 76 82 0.0 4.0 0.00 0.01 0.01 74 1017.0
20260905220729 77 108 1.0 3.0 0.00 0.01 0.01 72 1017.0
20260905220225 77 115 0.0 3.0 0.00 0.01 0.01 73 1016.9
20260905215724 79 341 0.0 7.0 0.00 0.01 0.01 72 1017.0
20260905215220 78 173 0.0 1.0 0.00 0.01 0.01 70 1017.2
20260905214715 78 259 2.0 6.0 0.00 0.01 0.01 73 1017.2
20260905214211 78 245 1.0 2.0 0.00 0.01 0.01 73 1017.3
20260905213706 78 127 2.0 4.0 0.00 0.01 0.01 73 1017.3
20260905213202 78 202 1.0 3.0 0.00 0.01 0.01 71 1017.3
20260905212657 78 9 0.0 2.0 0.00 0.01 0.01 73 1017.2
20260905212156 76 120 0.0 2.0 0.00 0.01 0.01 76 1017.3
20260905211650 76 116 1.0 2.0 0.00 0.01 0.01 76 1017.4
20260905211146 77 179 0.0 1.0 0.00 0.01 0.01 76 1017.4
20260905210643 76 53 3.0 7.0 0.00 0.01 0.01 76 1017.3
20260905210137 77 340 4.0 6.0 0.00 0.01 0.01 76 1017.2
20260905205636 76 53 1.0 4.0 0.00 0.01 0.01 78 1017.2
20260905205136 76 14 3.0 6.0 0.00 0.01 0.01 77 1017.1
20260905204630 76 327 3.0 7.0 0.00 0.01 0.01 78 1017.1
20260905204125 76 122 0.0 3.0 0.00 0.01 0.01 81 1017.1
20260905203625 76 180 1.0 3.0 0.00 0.01 0.01 80 1017.2
20260905203121 76 260 1.0 2.0 0.00 0.01 0.01 81 1017.0
20260905202616 76 110 2.0 3.0 0.00 0.01 0.01 81 1016.9
20260905202111 76 142 1.0 4.0 0.00 0.01 0.01 80 1016.9
20260905201607 77 145 2.0 4.0 0.00 0.01 0.01 79 1017.2
20260905201106 77 167 1.0 4.0 0.00 0.01 0.01 79 1017.0
20260905200602 78 64 3.0 6.0 0.00 0.01 0.01 79 1017.1
20260905200056 78 153 0.0 2.0 0.00 0.01 0.01 78 1017.1
20260905195550 78 64 0.0 3.0 0.00 0.01 0.01 80 1017.0
20260905195046 80 77 0.0 7.0 0.00 0.01 0.01 79 1017.1
20260905194545 79 70 0.0 6.0 0.00 0.01 0.01 80 1017.0
20260905194044 78 117 4.0 6.0 0.00 0.01 0.01 80 1017.1
20260905193539 78 323 1.0 3.0 0.00 0.01 0.01 81 1017.1
20260905193035 76 61 1.0 3.0 0.00 0.01 0.01 83 1017.2
20260905192529 77 277 4.0 7.0 0.00 0.01 0.01 81 1017.2
20260905192026 77 354 0.0 6.0 0.00 0.01 0.01 81 1017.1
20260905191524 77 75 2.0 7.0 0.00 0.01 0.01 83 1017.0
20260905191024 77 340 4.0 8.0 0.00 0.01 0.01 82 1017.0
20260905190522 77 354 2.0 3.0 0.00 0.01 0.01 83 1017.2
20260905190021 76 22 1.0 2.0 0.00 0.01 0.01 84 1017.2
20260905185515 76 303 2.0 6.0 0.00 0.01 0.01 85 1017.1
20260905185015 75 349 3.0 4.0 0.00 0.01 0.01 85 1017.3
20260905184510 75 290 1.0 2.0 0.00 0.01 0.01 86 1017.4
20260905184008 75 320 1.0 4.0 0.00 0.01 0.01 86 1017.4
20260905183508 74 55 0.0 2.0 0.00 0.01 0.01 88 1017.3
20260905183003 74 30 1.0 3.0 0.00 0.01 0.01 87 1017.2
20260905182502 74 7 4.0 6.0 0.00 0.01 0.01 87 1017.3
20260905181957 74 337 0.0 3.0 0.00 0.01 0.01 87 1017.5
20260905181452 74 134 0.0 1.0 0.00 0.01 0.01 87 1017.2
20260905180952 74 109 1.0 2.0 0.00 0.01 0.01 87 1017.1
20260905180452 74 219 0.0 1.0 0.00 0.01 0.01 88 1017.3
20260905175947 73 89 1.0 3.0 0.00 0.01 0.01 89 1017.3
20260905175446 73 164 2.0 2.0 0.00 0.01 0.01 88 1017.1
20260905174942 74 125 0.0 1.0 0.00 0.01 0.01 89 1017.2
20260905174437 73 150 0.0 2.0 0.00 0.01 0.01 90 1017.2
20260905173933 73 105 1.0 3.0 0.00 0.01 0.01 90 1017.2
20260905173429 73 164 0.0 3.0 0.00 0.01 0.01 90 1017.2
20260905172925 73 117 2.0 4.0 0.00 0.01 0.01 90 1017.3
20260905172422 73 335 0.0 2.0 0.00 0.01 0.01 91 1017.2
20260905171918 73 177 0.0 2.0 0.00 0.01 0.01 91 1017.3
20260905171416 73 25 2.0 3.0 0.00 0.01 0.01 91 1017.4
20260905170911 73 123 0.0 2.0 0.00 0.01 0.01 90 1017.4
20260905170407 73 57 3.0 4.0 0.00 0.01 0.01 90 1017.5
20260905165906 73 9 1.0 2.0 0.00 0.01 0.01 90 1017.5
20260905165401 74 137 0.0 1.0 0.00 0.01 0.01 89 1017.4
20260905164856 74 115 2.0 3.0 0.00 0.01 0.01 89 1017.7
20260905164351 74 81 1.0 3.0 0.00 0.01 0.01 88 1017.5
20260905163846 75 311 0.0 1.0 0.00 0.01 0.01 88 1017.4
20260905163343 74 344 2.0 3.0 0.00 0.01 0.01 90 1017.4
20260905162839 74 151 0.0 0.0 0.00 0.01 0.01 91 1017.3
20260905162338 73 122 0.0 4.0 0.00 0.01 0.01 90 1017.3
20260905161833 73 269 1.0 2.0 0.00 0.01 0.01 92 1017.4
20260905161332 73 128 0.0 3.0 0.00 0.01 0.01 92 1017.5
20260905160830 73 173 0.0 1.0 0.00 0.01 0.01 93 1017.3
20260905160325 72 85 1.0 2.0 0.00 0.01 0.01 93 1017.4
20260905155820 72 350 1.0 1.0 0.00 0.01 0.01 93 1017.3
20260905155319 73 98 0.0 2.0 0.00 0.01 0.01 93 1017.5
20260905154813 73 166 0.0 0.0 0.00 0.01 0.01 94 1017.3
20260905154309 72 61 0.0 2.0 0.00 0.01 0.01 94 1017.2
20260905153804 72 163 0.0 1.0 0.00 0.01 0.01 94 1017.3
20260905153300 71 76 1.0 2.0 0.00 0.01 0.01 94 1017.4